| time (UTC) | temp F | wind direction | speed MPH | gust MPH | rain 1hr in | rain 24hr in | rain mn in | humidity % | barometer mb |
| 20260507181546 | 53 | 282 | 0.0 | 3.0 | 0.00 | 0.12 | 0.11 | 76 | 1016.0 |
| 20260507180045 | 54 | 267 | 0.0 | 0.0 | 0.00 | 0.12 | 0.11 | 76 | 1016.0 |
| 20260507174547 | 54 | 268 | 0.0 | 1.0 | 0.00 | 0.14 | 0.11 | 76 | 1015.9 |
| 20260507173114 | 54 | 269 | 0.0 | 1.0 | 0.00 | 0.14 | 0.11 | 75 | 1015.7 |
| 20260507171543 | 54 | 263 | 0.0 | 2.0 | 0.00 | 0.14 | 0.11 | 75 | 1015.6 |
| 20260507170041 | 55 | 264 | 0.0 | 0.0 | 0.00 | 0.14 | 0.11 | 75 | 1015.6 |
| 20260507164541 | 55 | 264 | 0.0 | 2.0 | 0.00 | 0.17 | 0.11 | 74 | 1015.6 |
| 20260507163041 | 55 | 263 | 0.0 | 1.0 | 0.00 | 0.17 | 0.11 | 75 | 1015.5 |
| 20260507161547 | 56 | 263 | 1.0 | 3.0 | 0.00 | 0.17 | 0.11 | 73 | 1015.6 |
| 20260507160047 | 56 | 313 | 0.0 | 1.0 | 0.00 | 0.17 | 0.11 | 74 | 1015.6 |
| 20260507154541 | 55 | 315 | 0.0 | 4.0 | 0.00 | 0.17 | 0.11 | 75 | 1015.5 |
| 20260507153039 | 55 | 255 | 0.0 | 2.0 | 0.00 | 0.17 | 0.11 | 76 | 1015.6 |
| 20260507151537 | 55 | 277 | 0.0 | 4.0 | 0.00 | 0.17 | 0.11 | 76 | 1015.5 |
| 20260507150041 | 55 | 277 | 0.0 | 3.0 | 0.00 | 0.17 | 0.11 | 75 | 1015.4 |
| 20260507144537 | 55 | 260 | 0.0 | 3.0 | 0.00 | 0.47 | 0.11 | 76 | 1015.4 |
| 20260507143048 | 55 | 261 | 0.0 | 3.0 | 0.00 | 0.47 | 0.11 | 76 | 1015.4 |
| 20260507141548 | 55 | 284 | 0.0 | 4.0 | 0.00 | 0.47 | 0.11 | 75 | 1015.5 |
| 20260507140035 | 55 | 328 | 0.0 | 4.0 | 0.00 | 0.47 | 0.11 | 76 | 1015.3 |
| 20260507134535 | 55 | 236 | 0.0 | 5.0 | 0.00 | 0.49 | 0.11 | 76 | 1015.4 |
| 20260507133102 | 56 | 240 | 2.0 | 5.0 | 0.01 | 0.49 | 0.11 | 74 | 1015.3 |
| 20260507131536 | 57 | 265 | 0.0 | 4.0 | 0.01 | 0.49 | 0.11 | 71 | 1015.2 |
| 20260507130036 | 56 | 276 | 0.0 | 4.0 | 0.01 | 0.49 | 0.11 | 73 | 1015.2 |
| 20260507124531 | 55 | 283 | 0.0 | 4.0 | 0.01 | 0.49 | 0.11 | 76 | 1015.2 |
| 20260507123038 | 56 | 288 | 0.0 | 2.0 | 0.00 | 0.48 | 0.10 | 73 | 1015.1 |
| 20260507121530 | 56 | 277 | 0.0 | 2.0 | 0.00 | 0.48 | 0.10 | 75 | 1015.1 |
| 20260507120025 | 54 | 235 | 0.0 | 2.0 | 0.00 | 0.48 | 0.10 | 77 | 1015.2 |
| 20260507114522 | 53 | 257 | 0.0 | 3.0 | 0.00 | 0.48 | 0.10 | 81 | 1015.2 |
| 20260507113056 | 52 | 290 | 0.0 | 2.0 | 0.00 | 0.48 | 0.10 | 83 | 1015.2 |
| 20260507111600 | 52 | 248 | 0.0 | 3.0 | 0.00 | 0.48 | 0.10 | 80 | 1015.3 |
| 20260507110059 | 52 | 302 | 0.0 | 5.0 | 0.00 | 0.48 | 0.10 | 79 | 1015.3 |
| 20260507104555 | 52 | 265 | 0.0 | 3.0 | 0.00 | 0.48 | 0.10 | 81 | 1015.2 |
| 20260507103056 | 52 | 251 | 1.0 | 4.0 | 0.00 | 0.48 | 0.10 | 81 | 1015.1 |
| 20260507101552 | 53 | 259 | 0.0 | 5.0 | 0.00 | 0.48 | 0.10 | 83 | 1015.0 |
| 20260507100051 | 52 | 249 | 0.0 | 2.0 | 0.00 | 0.48 | 0.10 | 87 | 1015.1 |
| 20260507094558 | 51 | 221 | 0.0 | 5.0 | 0.00 | 0.48 | 0.10 | 84 | 1015.1 |
| 20260507093046 | 52 | 327 | 0.0 | 5.0 | 0.00 | 0.48 | 0.10 | 85 | 1014.7 |
| 20260507091543 | 51 | 296 | 0.0 | 4.0 | 0.00 | 0.48 | 0.10 | 90 | 1014.6 |
| 20260507090043 | 50 | 288 | 0.0 | 4.0 | 0.01 | 0.48 | 0.10 | 92 | 1014.5 |
| 20260507084541 | 50 | 290 | 0.0 | 3.0 | 0.02 | 0.48 | 0.10 | 94 | 1014.4 |
| 20260507083037 | 49 | 272 | 0.0 | 4.0 | 0.04 | 0.48 | 0.10 | 95 | 1014.3 |
| 20260507081539 | 49 | 295 | 0.0 | 2.0 | 0.05 | 0.48 | 0.10 | 94 | 1014.1 |
| 20260507080034 | 49 | 284 | 0.0 | 3.0 | 0.05 | 0.47 | 0.09 | 94 | 1013.9 |
| 20260507074533 | 49 | 298 | 0.0 | 3.0 | 0.04 | 0.46 | 0.08 | 94 | 1013.7 |
| 20260507073031 | 49 | 284 | 0.0 | 4.0 | 0.02 | 0.44 | 0.06 | 94 | 1013.5 |
| 20260507071529 | 49 | 258 | 0.0 | 3.0 | 0.02 | 0.43 | 0.06 | 94 | 1013.3 |
| 20260507070039 | 49 | 314 | 0.0 | 7.0 | 0.02 | 0.43 | 0.05 | 93 | 1013.1 |
| 20260507064524 | 49 | 314 | 0.0 | 2.0 | 0.01 | 0.42 | 0.04 | 93 | 1013.0 |
| 20260507063022 | 49 | 295 | 0.0 | 5.0 | 0.01 | 0.42 | 0.04 | 93 | 1012.8 |
| 20260507061523 | 49 | 325 | 0.0 | 2.0 | 0.01 | 0.42 | 0.04 | 93 | 1012.7 |
| 20260507060025 | 49 | 297 | 0.0 | 4.0 | 0.01 | 0.41 | 0.03 | 93 | 1012.7 |
| 20260507054518 | 49 | 311 | 0.0 | 2.0 | 0.01 | 0.41 | 0.03 | 93 | 1012.5 |
| 20260507053016 | 49 | 298 | 0.0 | 2.0 | 0.02 | 0.41 | 0.03 | 93 | 1012.4 |
| 20260507051515 | 48 | 300 | 0.0 | 4.0 | 0.02 | 0.41 | 0.03 | 93 | 1012.2 |
| 20260507050021 | 48 | 310 | 0.0 | 4.0 | 0.01 | 0.40 | 0.02 | 93 | 1012.0 |
| 20260507044511 | 48 | 309 | 0.0 | 1.0 | 0.01 | 0.40 | 0.02 | 92 | 1011.9 |
| 20260507043009 | 48 | 267 | 0.0 | 3.0 | 0.00 | 0.39 | 0.02 | 92 | 1011.6 |
| 20260507041507 | 48 | 270 | 0.0 | 5.0 | 0.00 | 0.39 | 0.02 | 92 | 1011.4 |
| 20260507040006 | 48 | 263 | 0.0 | 4.0 | 0.00 | 0.39 | 0.02 | 92 | 1011.3 |
| 20260507034505 | 48 | 292 | 0.0 | 2.0 | 0.00 | 0.39 | 0.02 | 92 | 1011.2 |
| 20260507033003 | 48 | 296 | 0.0 | 0.0 | 0.01 | 0.39 | 0.02 | 92 | 1011.1 |
| 20260507031501 | 48 | 296 | 0.0 | 0.0 | 0.01 | 0.39 | 0.02 | 92 | 1011.0 |
| 20260507030111 | 48 | 296 | 0.0 | 0.0 | 0.01 | 0.39 | 0.02 | 92 | 1010.9 |
| 20260507024613 | 48 | 296 | 0.0 | 0.0 | 0.01 | 0.39 | 0.02 | 92 | 1010.9 |
| 20260507023057 | 48 | 296 | 0.0 | 0.0 | 0.00 | 0.39 | 0.01 | 92 | 1010.8 |
| 20260507021559 | 48 | 296 | 0.0 | 0.0 | 0.00 | 0.39 | 0.01 | 92 | 1010.8 |
| 20260507014559 | 49 | 296 | 0.0 | 0.0 | 0.00 | 0.39 | 0.01 | 92 | 1010.6 |
| 20260507013101 | 49 | 296 | 0.0 | 0.0 | 0.00 | 0.39 | 0.01 | 92 | 1010.5 |
| 20260507011557 | 49 | 296 | 0.0 | 0.0 | 0.00 | 0.39 | 0.01 | 93 | 1010.4 |
| 20260507010053 | 49 | 296 | 0.0 | 0.0 | 0.00 | 0.39 | 0.01 | 93 | 1010.4 |
| 20260507004552 | 49 | 296 | 0.0 | 0.0 | 0.00 | 0.39 | 0.01 | 93 | 1010.4 |
| 20260507003051 | 49 | 296 | 0.0 | 0.0 | 0.00 | 0.39 | 0.01 | 92 | 1010.4 |
| 20260507001551 | 49 | 296 | 0.0 | 0.0 | 0.00 | 0.39 | 0.01 | 92 | 1010.4 |
| 20260507000050 | 49 | 296 | 0.0 | 1.0 | 0.00 | 0.39 | 0.01 | 91 | 1010.5 |
| 20260506234555 | 49 | 288 | 0.0 | 2.0 | 0.00 | 0.39 | 0.01 | 91 | 1010.6 |
| 20260506233052 | 49 | 288 | 0.0 | 4.0 | 0.00 | 0.39 | 0.01 | 90 | 1010.6 |
| 20260506231553 | 49 | 329 | 1.0 | 6.0 | 0.00 | 0.39 | 0.01 | 90 | 1010.5 |
| 20260506230044 | 50 | 360 | 0.0 | 3.0 | 0.00 | 0.39 | 0.01 | 90 | 1010.4 |
| 20260506224543 | 50 | 288 | 0.0 | 4.0 | 0.01 | 0.39 | 0.01 | 91 | 1010.4 |
| 20260506223041 | 50 | 314 | 0.0 | 2.0 | 0.01 | 0.39 | 0.01 | 91 | 1010.3 |
| 20260506221539 | 50 | 260 | 0.0 | 6.0 | 0.01 | 0.39 | 0.01 | 91 | 1010.0 |
| 20260506220037 | 50 | 297 | 1.0 | 5.0 | 0.01 | 0.39 | 0.01 | 91 | 1009.9 |
| 20260506214536 | 50 | 317 | 0.0 | 2.0 | 0.00 | 0.38 | 0.38 | 93 | 1009.9 |
| 20260506213038 | 50 | 299 | 0.0 | 0.0 | 0.00 | 0.38 | 0.38 | 94 | 1009.8 |
| 20260506211534 | 51 | 299 | 0.0 | 0.0 | 0.00 | 0.38 | 0.38 | 94 | 1009.7 |
| 20260506210035 | 51 | 299 | 0.0 | 0.0 | 0.00 | 0.38 | 0.38 | 94 | 1009.7 |
| 20260506204535 | 51 | 299 | 0.0 | 0.0 | 0.00 | 0.39 | 0.38 | 94 | 1009.6 |
| 20260506203038 | 51 | 299 | 0.0 | 0.0 | 0.00 | 0.39 | 0.38 | 94 | 1009.6 |
| 20260506201536 | 50 | 299 | 0.0 | 0.0 | 0.00 | 0.39 | 0.38 | 94 | 1009.6 |
| 20260506200030 | 51 | 299 | 0.0 | 0.0 | 0.00 | 0.39 | 0.38 | 94 | 1009.4 |
| 20260506194529 | 51 | 299 | 0.0 | 0.0 | 0.00 | 0.39 | 0.38 | 94 | 1009.3 |
| 20260506193027 | 51 | 299 | 0.0 | 0.0 | 0.01 | 0.39 | 0.38 | 94 | 1009.1 |
| 20260506191526 | 51 | 299 | 0.0 | 0.0 | 0.01 | 0.39 | 0.38 | 93 | 1008.8 |
| 20260506190023 | 51 | 299 | 0.0 | 0.0 | 0.01 | 0.39 | 0.38 | 93 | 1008.6 |
| 20260506184523 | 51 | 299 | 0.0 | 3.0 | 0.02 | 0.39 | 0.38 | 92 | 1008.5 |
| 20260506183022 | 51 | 300 | 0.0 | 2.0 | 0.02 | 0.39 | 0.37 | 92 | 1008.3 |